Miscellaneous Local Product
Issued by NWS Hastings, NE

Home | Current Version | Previous Version | Graphics & Text | Print | Product List | Glossary On
Versions: 1 2 3 4 5 6 7 8 9 10 11 12 13 14 15 16 17 18 19 20 21 22 23 24 25 26 27 28 29 30 31 32 33 34 35 36 37 38 39 40 41 42 43 44 45 46 47 48 49 50
000
AXUS43 KGID 130702
MISGRI

GID CWA HOURLY WEATHER ROUNDUP
NATIONAL WEATHER SERVICE HASTINGS NE
100 AM CST WED DEC 13 2017

NOTE: "FAIR" INDICATES FEW OR NO CLOUDS BELOW 12,000 FEET WITH NO
SIGNIFICANT WEATHER AND/OR OBSTRUCTIONS TO VISIBILITY.

...SOUTH CENTRAL NEBRASKA...

CITY           SKY/WX    TMP DP  RH WIND       PRES   REMARKS
GRAND ISLAND   CLEAR     38  22  52 W13       29.76F WCI  30
KEARNEY        CLEAR     48  20  32 W17       29.79F
HASTINGS       CLEAR     43  20  39 W16       29.77F
ORD            CLOUDY    29  20  69 N6        29.75F WCI  23
YORK           CLEAR     37  21  52 CALM      29.75F
AURORA         CLEAR     33  20  57 W10       29.74F WCI  25
LEXINGTON      CLOUDY    31  20  63 NW9       29.83F WCI  23
HOLDREGE       CLOUDY    41  22  46 W14       29.82F
HEBRON         CLEAR     40  22  48 SW9       29.78F WCI  34

...NEBRASKA PANHANDLE...

CITY           SKY/WX    TMP DP  RH WIND       PRES   REMARKS
CHADRON        CLOUDY    50  12  21 W24G33    29.95R
ALLIANCE       CLOUDY    35  18  49 W14       29.95S WCI  26
SCOTTSBLUFF    CLOUDY    37  15  40 NW12      30.02R WCI  29
SIDNEY         CLOUDY    39  10  30 W12       29.99F WCI  32

...WESTERN AND NORTH CENTRAL NEBRASKA...

CITY           SKY/WX    TMP DP  RH WIND       PRES   REMARKS
VALENTINE      CLOUDY    45  20  36 W14       29.79F
AINSWORTH      CLOUDY    48  21  34 W16G22    29.77F
ONEILL         CLOUDY    45  23  42 W16       29.71F
BROKEN BOW     CLEAR     48  20  32 NW21      29.79F
IMPERIAL       CLEAR     42  13  30 W13       29.93F
NORTH PLATTE   CLOUDY    26  18  71 NW9       29.87F WCI  17
MCCOOK         CLEAR     36  18  48 W12       29.88F WCI  28

...EASTERN NEBRASKA...

CITY           SKY/WX    TMP DP  RH WIND       PRES   REMARKS
NORFOLK        CLOUDY    35  20  54 W8        29.67F WCI  29
SO SIOUX CITY  CLEAR     26  21  81 S3        29.63F
TEKAMAH        CLOUDY    34  21  59 S8        29.67F WCI  27
ALBION         CLOUDY    39  22  51 NW7       29.72F WCI  34
OMAHA EPPLEY   CLEAR     29  22  75 SE8       29.72F WCI  21
OFFUTT AFB     CLEAR     23  19  86 E3        29.71F
MILLARD        CLEAR     36  26  67 CALM      29.72F
LINCOLN        CLEAR     32  23  69 S7        29.75F WCI  26
NEBRASKA CITY  CLEAR     36  27  68 SW13      29.74F WCI  28
BEATRICE       CLEAR     36  24  64 S6        29.77F WCI  31
FALLS CITY     CLEAR     30  23  75 S6        29.78F WCI  24

...NORTHERN KANSAS...

CITY           SKY/WX    TMP DP  RH WIND       PRES   REMARKS
GOODLAND       CLOUDY    38  15  39 W14       29.96F WCI  30
HILL CITY      CLEAR     43  20  39 W10       29.87F
NORTON         SUNNY     45  12  26 W17       29.84F
PHILLIPSBURG   CLEAR     39  19  45 W7        29.84F WCI  34
SMITH CENTER   CLEAR     34  18  51 CALM      29.83F
HAYS           CLEAR     45  17  32 W17       29.87
RUSSELL        CLEAR     39  19  44 SW10      29.85F WCI  32
CONCORDIA      CLOUDY    42  20  41 SW10      29.80F
SALINA         CLEAR     34  22  61 S8        29.86F WCI  27
TOPEKA         CLEAR     40  29  64 SW8       29.86F WCI  34



USA.gov is the U.S. government's official web portal to all federal, state and local government web resources and services.